Weather History for Gibraltar, Gibraltar

Change the Weather History Date:

Saturday, November 24, 2012

  Actual Average Record
Temperature  
Mean Temperature 63 °F -  
Max Temperature 64 °F 61 °F 69 °F (2006)
Min Temperature 62 °F 53 °F 46 °F (2013)
Degree Days  
Heating Degree Days 2    
Growing Degree Days 13 (Base 50)    
Moisture  
Dew Point 58 °F    
Average Humidity 83    
Maximum Humidity 88    
Minimum Humidity 75    
Precipitation  
Precipitation 0.00 in - - ()
Sea Level Pressure  
Sea Level Pressure 30.11 in    
Wind  
Wind Speed 14 mph ()    
Max Wind Speed 22 mph    
Max Gust Speed -    
Visibility 6.5 miles    
Events      
Averages and records for this station are not official NWS values.
T = Trace of Precipitation, MM = Missing Value Source: Averaged Metar Reports

Daily Weather History Graph

Daily Weather History Graph

Search for Another Location

Airport:

Trip Planner

Search our weather history database for the weather conditions in past years. The results will help you decide how hot, cold, wet, or windy it might be!

Date:

Astronomy

Nov. 24, 2012 Rise Set
Actual Time 8:07 AM CET 6:08 PM CET
Civil Twilight 7:39 AM CET 6:36 PM CET
Nautical Twilight 7:08 AM CET 7:08 PM CET
Astronomical Twilight 6:37 AM CET 7:38 PM CET
Moon 3:41 PM CET (11/24) 4:16 AM CET (11/24)
Length of Visible Light 10h 56m
Length of Day
10h 01m
Waxing Gibbous, 85% of the Moon is Illuminated
Nov 24
Waxing Gibbous
Nov 28
Full
Dec 6
Last Quarter
Dec 13
New
Dec 20
First Quarter

Hourly Weather History & Observations

Time (CET) Temp. Dew Point Humidity Pressure Visibility Wind Dir Wind Speed Gust Speed Precip Events Conditions
12:50 AM 62 °F 57 °F 78% 30.15 in 9 mi East 19.6 mph - -   Scattered Clouds
12:50 AM 62.6 °F 57.2 °F 82% 30.12 in 6.2 mi East 19.6 mph - N/A   Mostly Cloudy
1:50 AM 62.6 °F 57.2 °F 82% 30.12 in 6.2 mi ENE 19.6 mph - N/A   Mostly Cloudy
2:50 AM 62.6 °F 57.2 °F 82% 30.12 in 6.2 mi East 19.6 mph - N/A   Mostly Cloudy
3:50 AM 62.6 °F 57.2 °F 82% 30.09 in 6.2 mi ENE 18.4 mph - N/A   Overcast
4:50 AM 62.6 °F 57.2 °F 82% 30.09 in 6.2 mi East 18.4 mph - N/A   Mostly Cloudy
5:50 AM 62.6 °F 55.4 °F 77% 30.09 in 6.2 mi East 21.9 mph - N/A   Mostly Cloudy
6:50 AM 63 °F 58 °F 77% 30.12 in 9 mi ENE 16.1 mph - -   Mostly Cloudy
6:50 AM 62.6 °F 57.2 °F 82% 30.09 in 6.2 mi ENE 16.1 mph - N/A   Mostly Cloudy
7:50 AM 62.6 °F 57.2 °F 82% 30.09 in 6.2 mi East 16.1 mph - N/A   Mostly Cloudy
8:50 AM 62.6 °F 57.2 °F 82% 30.09 in 6.2 mi East 16.1 mph - N/A   Mostly Cloudy
9:50 AM 62.6 °F 57.2 °F 82% 30.12 in 6.2 mi East 16.1 mph - N/A   Mostly Cloudy
10:50 AM 62.6 °F 57.2 °F 82% 30.15 in 6.2 mi East 16.1 mph - N/A   Mostly Cloudy
11:50 AM 62.6 °F 57.2 °F 82% 30.15 in 6.2 mi East 13.8 mph - N/A   Mostly Cloudy
12:50 PM 64 °F 58 °F 75% 30.14 in 7 mi East 13.8 mph - -   Mostly Cloudy
12:50 PM 64.4 °F 57.2 °F 77% 30.12 in 6.2 mi East 13.8 mph - N/A   Mostly Cloudy
1:50 PM 64.4 °F 59.0 °F 83% 30.12 in 6.2 mi East 15.0 mph - N/A   Mostly Cloudy
2:50 PM 64.4 °F 57.2 °F 77% 30.09 in 6.2 mi East 15.0 mph - N/A   Mostly Cloudy
3:50 PM 62.6 °F 59.0 °F 88% 30.09 in 6.2 mi East 11.5 mph - N/A   Mostly Cloudy
4:50 PM 62.6 °F 59.0 °F 88% 30.09 in 6.2 mi ENE 11.5 mph - N/A   Mostly Cloudy
5:50 PM 62.6 °F 59.0 °F 88% 30.09 in 6.2 mi East 11.5 mph - N/A   Mostly Cloudy
6:50 PM 63 °F 58 °F 78% 30.11 in 7 mi East 11.5 mph - -   Mostly Cloudy
6:50 PM 62.6 °F 57.2 °F 82% 30.09 in 6.2 mi East 11.5 mph - N/A   Mostly Cloudy
7:50 PM 62.6 °F 59.0 °F 88% 30.12 in 6.2 mi East 11.5 mph - N/A   Mostly Cloudy
8:50 PM 62.6 °F 59.0 °F 88% 30.12 in 6.2 mi East 9.2 mph - N/A   Overcast
9:50 PM 62.6 °F 59.0 °F 88% 30.12 in 6.2 mi East 6.9 mph - N/A   Mostly Cloudy
10:50 PM 62.6 °F 59.0 °F 88% 30.12 in 6.2 mi East 8.1 mph - N/A   Mostly Cloudy
11:50 PM 62.6 °F 59.0 °F 88% 30.12 in 6.2 mi East 10.4 mph - N/A   Mostly Cloudy